Temperature
11 11 11 12 12 12 13 13 13 14 15 16 17 17 17 17 17 17 17 17 17 16 16 16 16 16 16 16 16 16 16 16 16 16 16 16 16 16
10 11 11 11 11 12 12 12 13 13 14 15 16 16 17 17 17 17 16 16 16 16 16 16 16 16 16 16 16 16 16 16 16 16 16 16 16 16
10 10 10 11 11 11 11 12 12 13 13 15 15 16 16 16 16 16 16 16 16 16 16 16 16 16 16 16 16 16 16 16 16 16 16 16 16 16
10 10 10 10 10 11 11 11 11 12 13 14 15 15 15 16 16 16 16 16 16 16 16 16 16 16 16 16 16 16 16 16 16 16 16 16 16 16
9 9 10 10 10 10 10 11 11 11 12 13 13 14 15 15 15 15 16 16 16 16 16 16 16 16 16 16 16 16 16 16 16 16 16 16 16 16
9 9 9 9 10 10 10 10 11 11 11 12 12 13 14 14 15 15 15 15 15 15 15 15 15 15 15 16 16 16 16 16 16 16 16 16 16 15
8 8 9 9 9 10 10 10 10 10 11 11 12 12 13 13 14 14 14 14 14 14 14 14 15 15 15 15 15 15 16 16 16 16 16 15 15 15
7 8 8 8 9 9 9 10 10 10 10 10 11 11 12 13 14 14 14 13 13 13 13 13 13 13 14 14 15 15 15 15 15 15 15 15 15 15
7 7 8 8 8 9 9 9 10 10 10 10 10 11 12 12 13 13 14 14 14 13 12 12 12 12 12 13 14 14 14 15 15 15 15 15 15 14
7 7 7 8 8 8 9 9 9 10 10 10 10 11 11 12 13 14 14 13 13 12 12 12 11 11 12 12 12 13 13 13 14 14 14 14 14 14
7 7 7 7 8 8 8 9 9 9 9 10 10 10 11 11 11 12 12 13 12 12 11 12 11 11 11 11 11 12 12 13 13 13 13 13 14 13
6 6 7 7 7 8 8 8 9 9 9 9 10 10 10 11 11 12 12 13 12 11 11 11 11 11 11 11 11 11 12 12 12 13 13 13 13 13
6 6 7 7 7 7 8 8 9 9 9 9 9 10 10 10 11 11 12 12 13 13 12 12 12 11 11 11 11 11 11 12 12 12 12 12 12 12
6 6 6 7 7 7 8 8 8 8 9 9 9 9 10 10 11 11 11 12 12 13 14 13 12 12 12 11 11 11 11 11 11 12 12 12 12 12
6 6 6 6 7 7 8 8 8 8 8 9 9 9 10 10 10 11 11 11 11 12 12 13 13 12 12 12 12 12 12 11 11 11 12 12 12 12
6 6 6 6 7 7 8 8 8 8 8 9 9 9 9 9 10 10 10 11 11 11 11 12 12 12 12 12 13 13 13 12 12 11 11 11 11 11
6 6 6 6 7 7 7 8 8 8 8 8 9 9 9 9 9 10 10 10 10 11 11 11 11 11 11 12 12 12 12 12 12 12 11 11 11 11
6 6 6 7 7 7 7 8 8 8 8 9 9 9 9 9 9 9 10 10 10 11 11 11 10 10 10 10 11 12 12 12 12 11 11 11 10 10
6 6 7 7 7 7 7 8 8 8 8 8 9 9 9 9 9 9 10 10 10 10 11 11 11 11 10 10 11 11 11 11 11 11 10 10 10 10
7 7 7 7 7 7 8 8 8 8 8 8 9 9 9 9 9 9 9 10 10 10 10 10 11 11 11 12 12 11 11 11 11 11 10 10 9 9
7 7 7 7 7 8 8 8 8 8 8 9 9 9 9 9 9 9 9 9 9 10 10 10 11 11 11 11 11 11 11 11 11 11 10 9 9 8
7 7 8 8 8 8 8 8 8 9 9 9 9 9 9 9 9 9 9 9 9 10 10 10 10 10 10 10 10 11 11 10 10 9 10 10 10 9
7 8 8 8 8 8 8 8 9 9 9 9 9 9 9 9 9 9 9 9 9 9 9 9 9 9 9 9 10 10 10 10 9 9 9 9 9 9
Wind_Speed
6 6 5 4 4 3 3 3 3 3 3 4 2 2 3 4 10 11 10 15 17 18 18 19 20 21 22 23 24 24 24 24 24 24 24 24 24 24
6 7 6 5 4 4 3 3 4 3 3 3 3 2 3 5 7 9 9 12 13 14 15 16 17 19 20 21 22 22 22 22 22 22 22 22 22 22
8 8 8 7 5 4 4 3 4 3 5 4 2 1 2 6 6 7 8 8 7 9 11 12 14 15 17 18 19 20 20 20 20 20 20 19 19 19
8 8 9 8 7 6 4 4 4 4 4 5 3 1 2 7 8 8 6 6 6 7 8 9 11 12 13 14 15 16 17 17 17 17 16 16 16 15
9 9 9 8 8 6 6 6 4 4 4 4 3 2 1 5 7 7 7 6 6 8 9 9 9 10 11 11 13 14 14 14 14 14 14 13 13 12
9 9 9 9 10 9 7 7 6 5 4 4 4 3 3 5 6 7 6 4 4 5 7 9 11 11 10 11 11 12 13 13 14 14 13 13 12 11
9 9 9 12 14 11 8 8 7 5 5 5 4 4 5 7 7 5 7 6 4 3 5 4 6 6 7 9 11 13 14 15 15 15 15 14 14 13
9 9 9 11 14 16 16 14 12 8 7 6 5 6 8 7 7 8 9 7 4 4 4 4 4 5 4 6 10 13 15 16 16 17 17 16 16 15
10 9 11 11 10 8 12 15 15 15 12 8 7 8 7 8 10 11 10 9 5 8 5 4 3 4 4 7 11 13 15 16 17 17 18 18 17 16
11 11 10 10 10 8 8 8 9 9 11 8 7 8 7 7 11 11 11 8 6 6 5 4 3 3 3 6 9 12 14 15 16 17 18 18 18 17
11 11 11 10 13 13 9 8 8 7 9 10 10 9 9 9 9 9 11 11 8 5 3 4 4 3 3 3 6 10 12 14 16 17 18 18 19 17
8 9 13 13 13 14 10 9 9 8 7 7 7 8 8 10 14 12 12 13 9 5 5 5 5 5 4 2 2 5 9 11 14 16 17 18 17 14
6 6 7 12 14 14 12 9 11 9 7 7 6 6 6 7 10 10 10 11 11 5 9 7 5 4 5 4 2 2 4 5 8 10 13 15 14 13
6 5 6 10 13 13 11 10 12 10 6 6 6 7 7 8 9 10 10 8 6 7 13 10 6 7 6 5 4 3 3 4 6 5 7 11 10 11
5 6 6 7 8 8 11 12 9 6 6 6 7 7 6 6 7 8 9 7 6 8 14 8 10 10 6 6 7 5 4 4 4 4 4 4 5 6
3 2 3 4 3 3 5 6 5 6 6 6 6 5 4 5 6 7 8 9 7 5 6 8 11 14 6 6 8 7 6 8 8 6 5 3 5 9
1 1 1 2 2 2 3 4 4 4 5 4 4 4 5 6 6 6 7 9 7 8 8 6 6 5 6 9 8 9 7 5 7 7 6 5 4 7
2 2 3 3 4 5 5 4 5 6 6 5 5 5 5 6 6 6 7 9 9 8 8 8 9 6 4 3 4 10 9 6 7 8 5 5 4 5
2 3 4 4 4 4 5 5 6 6 6 6 5 5 5 5 6 7 8 9 9 10 10 10 11 9 8 6 5 9 11 9 10 8 6 5 6 6
4 5 5 5 5 5 5 5 5 5 6 6 6 6 6 6 7 8 9 9 10 9 9 10 11 10 8 9 7 6 14 12 10 10 8 4 3 4
5 6 6 6 5 6 6 6 6 6 6 6 7 7 7 6 6 8 8 11 9 9 12 12 10 11 6 7 7 5 7 14 15 10 9 6 4 4
6 6 6 6 6 6 6 5 5 6 7 6 7 7 7 7 8 9 9 10 10 9 9 8 9 9 6 7 7 8 8 8 10 15 17 13 8 8
6 6 5 5 5 5 5 6 7 6 6 7 7 7 8 7 7 8 9 10 10 10 10 10 9 7 6 6 7 6 9 9 7 6 4 6 12 16
Wind_Direction
251 250 248 251 250 247 241 233 239 259 270 267 260 214 182 171 176 177 176 187 191 195 199 202 204 205 204 206 209 212 215 217 218 219 220 221 222 225
250 247 247 244 246 247 245 240 228 227 252 265 253 235 167 158 153 149 153 161 174 184 192 198 202 204 205 207 209 212 214 215 217 219 221 222 223 225
260 249 245 238 234 236 234 236 238 222 248 270 273 268 144 148 132 121 121 121 136 164 179 190 197 201 204 207 209 211 212 213 215 217 218 218 218 220
260 253 249 245 233 229 224 227 231 228 232 257 279 241 173 159 143 131 118 112 109 129 155 171 182 188 193 197 200 201 202 203 205 206 206 206 209 212
254 249 246 238 234 228 220 223 226 234 228 239 257 250 177 150 136 120 112 106 100 106 115 130 147 161 171 179 184 186 187 187 188 189 189 187 187 189
253 246 242 232 228 224 221 219 217 218 221 231 240 238 190 157 144 141 132 117 110 103 97 103 112 118 132 148 159 164 165 165 163 161 159 157 158 162
259 252 248 243 235 223 216 209 204 209 212 216 224 224 198 171 164 151 146 134 99 109 110 96 96 92 95 115 132 142 145 146 146 145 143 142 141 142
256 255 257 259 249 233 223 211 197 198 206 212 215 220 209 182 163 156 151 153 149 150 124 99 88 87 70 83 123 134 138 139 140 139 137 136 134 133
246 247 258 257 244 231 229 225 215 208 200 198 211 217 211 189 171 168 169 165 149 153 131 104 80 79 61 85 116 127 132 135 135 134 133 131 129 129
239 237 237 244 246 227 220 217 213 212 210 206 209 214 211 197 185 176 163 135 105 130 121 115 100 80 66 71 101 120 128 131 132 131 130 128 126 124
240 238 233 232 235 226 213 210 211 221 220 213 214 217 206 195 175 160 157 155 152 154 123 119 125 104 75 59 82 111 125 131 132 132 131 129 125 117
242 239 238 232 229 220 208 200 205 212 201 200 211 221 209 194 181 180 174 170 158 154 153 127 136 132 112 76 69 99 114 124 132 134 135 133 129 117
237 236 236 233 229 220 206 200 207 197 191 190 195 204 200 196 192 189 184 177 169 160 161 142 142 132 126 131 124 122 124 128 128 136 140 140 139 134
232 234 236 236 227 215 204 204 206 192 176 180 194 201 202 201 197 191 185 184 168 155 161 152 144 152 137 134 148 143 141 146 143 146 152 148 141 139
238 238 232 228 210 200 199 194 189 182 173 182 198 204 201 196 186 183 175 155 122 140 158 156 145 150 141 144 149 152 153 173 169 156 160 159 158 149
257 260 225 190 171 172 178 183 180 184 181 187 195 191 178 181 186 182 177 163 147 141 146 152 153 153 145 142 151 160 159 167 174 174 162 167 178 177
232 197 161 154 166 178 175 176 179 179 188 179 180 179 181 185 185 177 168 160 159 160 156 145 139 129 131 146 151 161 156 154 165 164 158 172 194 189
228 208 205 197 193 190 185 186 189 193 193 182 177 180 185 189 184 175 170 168 164 165 162 154 146 129 104 75 146 161 163 158 158 162 153 162 192 199
231 236 230 216 210 202 195 193 198 200 190 183 186 184 184 185 181 177 176 172 168 168 167 161 163 160 161 169 185 175 168 163 160 168 172 165 183 194
231 234 235 228 220 216 207 203 203 193 186 188 189 185 182 182 184 179 177 175 167 165 166 171 177 177 176 165 159 176 176 165 166 173 175 163 144 161
240 240 238 229 223 220 216 207 200 194 189 186 188 186 180 177 182 179 174 169 165 168 176 182 180 157 120 118 125 143 171 180 172 169 167 156 147 147
247 245 243 234 226 219 214 205 196 193 190 189 187 185 181 178 179 175 173 174 177 175 176 166 150 152 152 162 162 156 160 169 181 179 173 168 163 179
247 245 243 241 231 218 206 201 198 198 193 188 187 184 179 177 176 173 172 173 174 171 164 160 160 163 166 160 153 149 155 161 159 155 170 192 193 195
Height
1467 1466 1466 1466 1466 1466 1467 1468 1469 1468 1468 1469 1471 1473 1475 1478 1481 1485 1488 1492 1495 1499 1503 1506 1510 1513 1517 1521 1525 1529 1533 1536 1540 1544 1547 1550 1553 1555
1461 1461 1461 1461 1462 1462 1462 1463 1464 1466 1465 1465 1467 1470 1472 1474 1478 1481 1484 1488 1491 1494 1498 1501 1505 1509 1513 1516 1520 1524 1528 1531 1535 1538 1541 1544 1547 1550
1455 1455 1456 1457 1457 1457 1458 1458 1459 1461 1461 1462 1464 1466 1468 1471 1474 1477 1480 1483 1486 1490 1493 1497 1500 1504 1508 1512 1516 1519 1523 1526 1530 1533 1536 1539 1542 1544
1448 1449 1449 1451 1451 1452 1453 1454 1455 1456 1457 1458 1460 1462 1465 1468 1470 1474 1477 1480 1482 1485 1489 1492 1496 1499 1503 1507 1511 1515 1519 1522 1525 1528 1531 1534 1537 1539
1441 1442 1443 1444 1445 1447 1448 1449 1450 1451 1452 1453 1455 1458 1461 1464 1466 1470 1473 1476 1478 1481 1484 1488 1491 1495 1499 1503 1507 1511 1515 1518 1521 1524 1527 1530 1532 1535
1433 1434 1435 1437 1439 1441 1442 1444 1445 1446 1447 1449 1451 1454 1457 1460 1462 1465 1469 1472 1475 1478 1481 1484 1488 1492 1496 1500 1503 1507 1511 1515 1518 1521 1523 1526 1528 1530
1426 1427 1428 1429 1431 1434 1436 1438 1440 1441 1443 1444 1446 1449 1452 1454 1458 1461 1465 1469 1472 1475 1478 1482 1485 1489 1492 1496 1500 1504 1508 1511 1514 1517 1520 1522 1524 1527
1418 1419 1420 1422 1424 1427 1429 1432 1434 1436 1438 1439 1440 1443 1446 1450 1453 1457 1461 1465 1469 1473 1476 1480 1483 1486 1490 1494 1497 1501 1505 1508 1511 1514 1516 1519 1521 1523
1410 1410 1412 1414 1416 1419 1422 1425 1427 1430 1432 1434 1435 1437 1441 1444 1448 1452 1457 1461 1465 1469 1474 1477 1481 1484 1488 1491 1495 1498 1502 1505 1508 1511 1514 1516 1518 1521
1402 1402 1403 1405 1409 1412 1415 1418 1420 1423 1426 1428 1430 1433 1436 1439 1443 1447 1452 1458 1463 1468 1472 1475 1478 1482 1486 1489 1492 1496 1499 1503 1506 1509 1512 1514 1516 1519
1393 1394 1395 1397 1400 1404 1407 1410 1414 1417 1420 1422 1425 1427 1429 1433 1437 1442 1447 1453 1458 1463 1468 1471 1475 1480 1484 1487 1490 1494 1497 1501 1504 1507 1510 1512 1515 1517
1385 1386 1387 1389 1392 1396 1400 1403 1407 1410 1414 1417 1419 1421 1423 1427 1431 1436 1441 1446 1452 1458 1462 1467 1472 1476 1481 1485 1488 1491 1495 1498 1502 1505 1508 1511 1514 1516
1379 1379 1381 1383 1386 1389 1393 1397 1401 1406 1409 1411 1413 1416 1418 1422 1425 1430 1436 1441 1446 1451 1456 1462 1467 1472 1476 1480 1485 1489 1493 1496 1499 1503 1506 1509 1512 1515
1374 1375 1376 1378 1380 1384 1388 1392 1396 1400 1403 1406 1408 1410 1413 1416 1420 1425 1431 1437 1443 1448 1452 1458 1462 1467 1471 1476 1480 1485 1490 1494 1498 1501 1504 1507 1510 1512
1371 1371 1372 1374 1376 1379 1383 1387 1392 1395 1398 1401 1403 1406 1409 1412 1416 1421 1426 1432 1438 1444 1449 1455 1459 1464 1470 1473 1477 1481 1485 1490 1494 1498 1502 1505 1508 1511
1369 1370 1371 1372 1374 1376 1380 1383 1387 1391 1394 1397 1400 1403 1406 1409 1412 1416 1421 1426 1432 1438 1445 1451 1456 1462 1467 1471 1475 1479 1483 1486 1491 1495 1499 1503 1506 1508
1369 1369 1369 1370 1372 1374 1378 1381 1384 1388 1391 1394 1397 1399 1402 1405 1408 1412 1417 1422 1427 1432 1439 1446 1453 1459 1465 1469 1473 1477 1480 1484 1489 1493 1496 1500 1503 1506
1368 1368 1368 1369 1371 1373 1376 1378 1381 1385 1388 1391 1393 1396 1398 1401 1404 1408 1413 1417 1423 1429 1435 1441 1447 1453 1459 1464 1469 1473 1477 1482 1486 1490 1494 1497 1500 1504
1367 1367 1367 1368 1369 1371 1373 1376 1379 1382 1385 1388 1390 1393 1395 1398 1401 1405 1409 1414 1419 1425 1431 1436 1442 1447 1452 1458 1463 1469 1473 1478 1483 1487 1491 1495 1498 1502
1365 1365 1365 1366 1367 1369 1371 1373 1376 1379 1381 1384 1387 1389 1392 1395 1398 1402 1406 1410 1415 1421 1426 1432 1437 1442 1448 1453 1459 1464 1470 1474 1479 1483 1488 1493 1498 1502
1363 1363 1363 1364 1365 1366 1368 1370 1372 1375 1377 1380 1383 1386 1389 1392 1395 1398 1402 1407 1412 1416 1421 1427 1434 1441 1447 1453 1458 1462 1467 1472 1477 1481 1486 1490 1494 1497
1360 1360 1361 1361 1362 1364 1365 1367 1369 1371 1374 1376 1379 1382 1385 1388 1392 1395 1399 1404 1408 1413 1419 1425 1431 1437 1443 1448 1454 1459 1464 1469 1475 1481 1486 1489 1490 1493
1357 1358 1358 1358 1359 1361 1362 1364 1366 1368 1370 1373 1375 1378 1382 1385 1388 1392 1396 1401 1405 1410 1415 1421 1427 1433 1439 1445 1451 1456 1461 1466 1471 1476 1482 1486 1490 1494